[[{"header":{"parameterUnit":"m.s-1","parameterCategory":2,"la1":30.2991,"la2":30.254,"lo1":-89.0895,"lo2":-89.0444,"dy":0.0017,"dx":0.0017,"nx":28,"ny":28,"refTime":"2025-06-08T03:00:00:Z","depth":"0","parameterNumber":2,"parameterNumberName":"U-component_of_CURRENTS"},"data":[0,0,0,0,0,0,0,0,0,0,0,0,0,0,0,0,0,0,0,0,0,0,0,0,0,0,0,0,0,0,0,0,0,0,0,0,0,0,0,0,0,0,0,0,0,0,0,0,0,0,0,0,0,0,0,0,0,0,0.2781,0.2781,0,0.2816,0.2817,0.2817,0.2826,0.2826,0.2826,0.2826,0.2848,0.2849,0.285,0,0,0,0,0,0,0,0,0,0,0,0,0,0.2721,0.2722,0.2781,0.2782,0.2782,0.2816,0.2817,0.2817,0.2826,0.2826,0.2826,0.2826,0.2848,0.2849,0.285,0,0,0,0,0,0,0,0,0,0,0,0,0,0.275,0.2723,0.2781,0.2791,0.2793,0.2816,0.2817,0.2817,0.2826,0.2826,0.2826,0.2826,0.2848,0.2849,0.285,0.286,0,0,0.2853,0.2854,0,0,0,0,0,0,0,0,0.2748,0.2752,0.2789,0.2791,0.2792,0.2817,0.2804,0.2831,0.2826,0.2812,0.2826,0.2825,0.2838,0.284,0.2845,0.2861,0.2862,0.2853,0.2854,0.2855,0.2855,0,0,0,0,0,0,0,0.2746,0.2751,0.2794,0.279,0.2792,0.2794,0.2798,0.2809,0.2825,0.2814,0.2815,0.282,0.2838,0.2844,0.2846,0.2863,0.2853,0.2854,0.2855,0.2855,0.3053,0.3057,0,0,0,0,0,0,0.2745,0.2749,0.2793,0.2795,0.2771,0.2796,0.28,0.2809,0.2825,0.2828,0.282,0.282,0.2843,0.2845,0.2847,0.2998,0.2855,0.2856,0.2856,0.3049,0.3054,0.3059,0,0,0,0,0,0,0.2743,0.2748,0.2791,0.2773,0.2779,0.2797,0.2807,0.281,0.2815,0.283,0.2832,0.2823,0.2842,0.2845,0.2889,0.2993,0.2856,0.2857,0.3043,0.305,0.3057,0.3212,0,0,0,0,0,0,0.2741,0.2748,0.2755,0.2773,0.278,0.2827,0.2807,0.281,0.2819,0.282,0.2833,0.2835,0.2843,0.2887,0.289,0.2992,0.2858,0.3037,0.3046,0.3054,0.3201,0.3223,0.3242,0,0,0,0,0,0.2739,0.2775,0.2755,0.2761,0.279,0.2829,0.2834,0.2844,0.2819,0.2842,0.2857,0.2835,0.2946,0.289,0.2892,0.2998,0.3033,0.3044,0.3054,0.3191,0.3219,0.3241,0,0,0,0,0,0,0.2764,0.2779,0.2759,0.2797,0.2812,0.2831,0.2859,0.2842,0.2868,0.2871,0.2863,0.2868,0.2961,0.2948,0.2887,0.3086,0.2998,0.3009,0.3103,0.3128,0.3148,0.3199,0.2859,0,0,0,0,0,0.2765,0.2798,0.2798,0.2835,0.2838,0.2836,0.2849,0.2855,0.2877,0.2886,0.2895,0.2933,0.3006,0.3034,0.3079,0.3156,0.3197,0.3238,0.3259,0.3276,0.3323,0.3495,0.3536,0.3093,0.3093,0.3093,0,0,0.2792,0.2801,0.2823,0.2842,0.2851,0.2918,0.2846,0.2883,0.2962,0.2886,0.2986,0.2992,0.304,0.3157,0.3199,0.3156,0.3417,0.3289,0.3303,0.3342,0.351,0.3553,0.3592,0.31,0.3099,0.3098,0,0,0.2902,0.2859,0.2938,0.2948,0.2969,0.2974,0.2981,0.2997,0.3021,0.3088,0.3096,0.316,0.3217,0.331,0.3358,0.3513,0.3517,0.3526,0.3676,0.3842,0.388,0.3914,0.3987,0.4026,0.3541,0.3541,0.3542,0,0.2926,0.3017,0.2968,0.3045,0.3079,0.3007,0.3107,0.3131,0.3166,0.322,0.3146,0.3327,0.3318,0.3545,0.359,0.3567,0.3627,0.357,0.3871,0.3906,0.3938,0.4005,0.4047,0.355,0.3549,0.3548,0.3547,0,0.3106,0.3163,0.3207,0.3283,0.3314,0.3372,0.3389,0.3428,0.3412,0.3445,0.3601,0.3607,0.3723,0.3738,0.3697,0.3953,0.3906,0.3871,0.3805,0.3993,0.4049,0.409,0.3563,0.3559,0.3557,0.3555,0,0,0.3203,0.3311,0.3323,0.338,0.3432,0.3468,0.3605,0.3709,0.3788,0.3834,0.3982,0.4092,0.4063,0.4118,0.4104,0.4222,0.4438,0.414,0.4145,0.4208,0.4766,0.4656,0.4688,0.4465,0.4474,0.4481,0.4698,0,0.3355,0.3525,0.3554,0.3716,0.3799,0.3784,0.3899,0.398,0.401,0.4116,0.4192,0.4297,0.4226,0.4254,0.4391,0.4415,0.4561,0.438,0.458,0.4585,0.4465,0.4739,0.4478,0.4646,0.4738,0.4744,0.4749,0,0.3539,0.3619,0.3799,0.3909,0.3938,0.4019,0.4142,0.4234,0.4374,0.4399,0.4554,0.4564,0.4764,0.4629,0.4901,0.479,0.4817,0.4829,0.4837,0.4722,0.4556,0.4484,0.4716,0.4598,0.4811,0.4806,0.4802,0,0.3629,0.379,0.3924,0.396,0.4079,0.4156,0.4207,0.4329,0.4392,0.4576,0.4626,0.4873,0.4934,0.5103,0.51,0.5031,0.5346,0.525,0.521,0.5196,0.501,0.4967,0.5156,0.5505,0.5505,0.5504,0.5504,0,0.3776,0.3889,0.3957,0.402,0.4143,0.4209,0.4334,0.4413,0.4535,0.4617,0.476,0.4863,0.5053,0.5208,0.5244,0.5361,0.5493,0.532,0.5303,0.5048,0.5008,0.4918,0.4868,0.5512,0.551,0.5509,0.5507,0,0.3889,0.394,0.4078,0.4174,0.4192,0.4269,0.434,0.4402,0.4531,0.4649,0.4711,0.4907,0.509,0.5258,0.5472,0.5496,0.5486,0.5628,0.5267,0.5205,0.5027,0.4992,0.5031,0.4904,0.5662,0.5661,0.5661,0,0.3972,0.4055,0.4132,0.4135,0.4172,0.4255,0.4277,0.4391,0.4433,0.4641,0.4684,0.4911,0.5006,0.5314,0.5413,0.5574,0.5433,0.5434,0.5279,0.5074,0.5026,0.483,0.4705,0.5069,0.5064,0.506,0.5056,0,0.409,0.4098,0.4145,0.4147,0.4158,0.418,0.4217,0.4251,0.4371,0.4472,0.4575,0.4681,0.4944,0.4992,0.5222,0.5281,0.5175,0.5348,0.5278,0.4742,0.4409,0.4251,0.4804,0.5018,0.5022,0.5025,0.5027,0.5028,0.4104,0.4129,0.4114,0.4109,0.4098,0.4039,0.4011,0.405,0.4091,0.417,0.4373,0.4436,0.4622,0.4877,0.4919,0.4864,0.4898,0.4764,0.4786,0.4641,0.4399,0.4838,0.4939,0.4942,0.4945,0.4948,0.495,0,0.4072,0.4056,0.4049,0.3977,0.389,0.3929,0.3896,0.3828,0.3798,0.3929,0.4014,0.4111,0.4187,0.432,0.4423,0.4343,0.4141,0.4273,0.3953,0.3896,0.4423,0.4273,0.4062,0.4062,0.4062,0.4063,0.4063,0.4063,0.4028,0.3981,0.3958,0.3761,0.3696,0.3532,0.3481,0.3426,0.345,0.3435,0.3459,0.3599,0.3895,0.4128,0.4074,0.3971,0.3721,0.3554,0.3637,0.4004,0.4049,0.4091,0.3942,0.3665,0.3665,0.2873,0.2867,0.2863]},{"header":{"parameterUnit":"m.s-1","parameterCategory":2,"la1":30.2991,"la2":30.254,"lo1":-89.0895,"lo2":-89.0444,"dy":0.0017,"dx":0.0017,"nx":28,"ny":28,"refTime":"2025-06-08T03:00:00:Z","depth":"0","parameterNumber":3,"parameterNumberName":"V-component_of_CURRENTS"},"data":[0,0,0,0,0,0,0,0,0,0,0,0,0,0,0,0,0,0,0,0,0,0,0,0,0,0,0,0,0,0,0,0,0,0,0,0,0,0,0,0,0,0,0,0,0,0,0,0,0,0,0,0,0,0,0,0,0,0,0.0148,0.0148,0,0.0088,0.0087,0.0086,0.002,0.0019,0.0018,0.0017,-0.0044,-0.0045,-0.0046,0,0,0,0,0,0,0,0,0,0,0,0,0,0.0158,0.0159,0.0148,0.0148,0.0147,0.0088,0.0087,0.0086,0.002,0.0019,0.0018,0.0017,-0.0043,-0.0045,-0.0046,0,0,0,0,0,0,0,0,0,0,0,0,0,0.013,0.0159,0.0149,0.0109,0.0105,0.0088,0.0087,0.0085,0.002,0.0019,0.0018,0.0017,-0.0043,-0.0044,-0.0046,-0.0032,0,0,-0.005,-0.0051,0,0,0,0,0,0,0,0,0.0131,0.0129,0.0115,0.0112,0.0107,0.0062,0.0068,0.0047,0.002,0.005,0.0017,0.0016,-0.0006,-0.0011,-0.0023,-0.0034,-0.0037,-0.005,-0.0051,-0.0052,-0.0052,0,0,0,0,0,0,0,0.0133,0.0131,0.0122,0.0115,0.011,0.0077,0.0072,0.0063,0.0027,0.0047,0.0043,0.004,-0.0009,-0.0021,-0.0024,-0.0038,-0.005,-0.0051,-0.0052,-0.0053,0.0056,0.0059,0,0,0,0,0,0,0.0149,0.0133,0.0124,0.0121,0.0119,0.0078,0.0072,0.0076,0.0027,0.0019,0.0041,0.0037,-0.0018,-0.0023,-0.0027,0.0081,-0.0052,-0.0053,-0.0054,0.0052,0.0057,0.0061,0,0,0,0,0,0,0.015,0.0149,0.0127,0.0127,0.0122,0.008,0.0084,0.0075,0.0063,0.0023,0.0014,0.0038,-0.0019,-0.0025,-0.0003,0.0074,-0.0053,-0.0055,0.0048,0.0054,0.0059,0.0236,0,0,0,0,0,0,0.015,0.015,0.0157,0.0128,0.0122,0.0139,0.0085,0.0075,0.0064,0.0058,0.0018,0.0011,-0.0021,-0.0,-0.0004,0.007,-0.0056,0.0043,0.005,0.0057,0.0225,0.0247,0.0265,0,0,0,0,0,0.0151,0.0184,0.0158,0.0157,0.0134,0.0141,0.0136,0.0099,0.0066,0.008,0.0061,0.0012,0.0041,0.0001,-0.0004,0.0071,0.004,0.0048,0.0056,0.0217,0.0243,0.0265,0,0,0,0,0,0,0.0201,0.0179,0.015,0.0175,0.0163,0.0131,0.0143,0.0109,0.0101,0.0096,0.0047,0.0041,0.0093,0.0058,0.0014,0.0126,0.0038,0.0046,0.0162,0.0186,0.0205,0.0208,-0.0057,0,0,0,0,0,0.0213,0.0225,0.0199,0.0218,0.0218,0.0176,0.0171,0.0148,0.0136,0.0129,0.0109,0.0102,0.0125,0.0133,0.0135,0.0186,0.0133,0.0237,0.0257,0.0274,0.0275,0.0269,0.0288,0.0088,0.0088,0.0088,0,0,0.0242,0.0227,0.0236,0.0228,0.0213,0.0251,0.0171,0.0181,0.0223,0.0127,0.0184,0.0164,0.0153,0.0221,0.0243,0.02,0.0308,0.0284,0.0299,0.0291,0.028,0.0299,0.0316,0.0094,0.0093,0.0092,0,0,0.033,0.029,0.0342,0.0335,0.0322,0.0304,0.0312,0.0293,0.0294,0.0335,0.0298,0.0321,0.0339,0.0358,0.0369,0.0498,0.041,0.0508,0.0614,0.061,0.0625,0.0638,0.0607,0.0616,0.0522,0.0523,0.0523,0,0.037,0.0417,0.036,0.0407,0.0421,0.034,0.041,0.0407,0.0402,0.043,0.0381,0.0436,0.0412,0.0514,0.0559,0.0544,0.0508,0.0523,0.0634,0.0645,0.0655,0.062,0.0627,0.0532,0.0531,0.053,0.0529,0,0.0507,0.0529,0.056,0.0591,0.0602,0.0639,0.0627,0.0648,0.0628,0.0625,0.0697,0.0663,0.0698,0.0707,0.0667,0.0758,0.0699,0.0654,0.0567,0.0686,0.0642,0.0646,0.0546,0.0542,0.0539,0.0537,0,0,0.0629,0.0658,0.0662,0.0697,0.0696,0.0724,0.08,0.0854,0.0918,0.0896,0.0997,0.1005,0.0957,0.0965,0.0926,0.091,0.0947,0.0818,0.0813,0.0777,0.0918,0.088,0.0879,0.0917,0.0919,0.092,0.0861,0,0.0754,0.0865,0.0857,0.0964,0.1013,0.0977,0.1061,0.1089,0.1098,0.1171,0.1132,0.12,0.107,0.1101,0.1068,0.0992,0.0965,0.0965,0.0816,0.0811,0.0755,0.0886,0.0776,0.0715,0.0864,0.0865,0.0865,0,0.0884,0.0935,0.106,0.1133,0.1161,0.1224,0.1319,0.1388,0.1446,0.1461,0.1483,0.1445,0.1457,0.1318,0.1211,0.1216,0.1079,0.0982,0.0977,0.0877,0.0782,0.062,0.0715,0.0492,0.087,0.087,0.087,0,0.0955,0.107,0.117,0.119,0.1273,0.1346,0.1407,0.1474,0.156,0.1647,0.1714,0.1686,0.1703,0.1541,0.133,0.1281,0.1182,0.1095,0.0924,0.0917,0.0762,0.074,0.0612,0.1004,0.1004,0.1004,0.1004,0,0.1051,0.1127,0.1211,0.1251,0.1398,0.1438,0.1598,0.1649,0.1771,0.1893,0.1865,0.1946,0.1753,0.1669,0.1432,0.121,0.1262,0.0965,0.0918,0.0823,0.0809,0.0554,0.0423,0.1002,0.1002,0.1002,0.1003,0,0.1081,0.1131,0.1242,0.1365,0.1414,0.1513,0.1693,0.181,0.1918,0.2083,0.2129,0.216,0.2054,0.1831,0.1593,0.1366,0.0988,0.1037,0.0931,0.0874,0.0502,0.0386,0.0205,0.0086,0.0851,0.085,0.0849,0,0.1122,0.1175,0.1298,0.1369,0.1426,0.1584,0.1697,0.1848,0.1984,0.2197,0.229,0.2287,0.2272,0.1943,0.1554,0.1185,0.094,0.0843,0.073,0.0497,0.0332,0.0264,0.0172,0.0583,0.058,0.0578,0.0576,0,0.1201,0.1216,0.1289,0.1414,0.1535,0.1696,0.188,0.2011,0.2209,0.2369,0.254,0.2562,0.2271,0.1889,0.1428,0.1136,0.0655,0.0782,0.0567,0.0149,0.0038,-0.0104,0.0591,0.0554,0.0557,0.0558,0.0559,0.056,0.1257,0.13,0.1374,0.1491,0.1623,0.1806,0.1953,0.2165,0.2399,0.2665,0.2677,0.2719,0.2168,0.1536,0.1163,0.0438,0.0487,0.017,0.0058,0.0021,-0.0119,0.0539,0.0443,0.0444,0.0445,0.0446,0.0447,0,0.1336,0.1371,0.1471,0.1607,0.1741,0.1812,0.2078,0.225,0.2518,0.2713,0.2859,0.2543,0.186,0.1198,0.0257,-0.0206,-0.0383,-0.0465,-0.0626,-0.0679,-0.0091,-0.0128,-0.0381,-0.038,-0.038,-0.038,-0.038,-0.0379,0.1387,0.1457,0.1482,0.1689,0.1793,0.2001,0.2152,0.2406,0.2591,0.2806,0.2794,0.277,0.2231,0.0523,-0.0586,-0.0841,-0.1151,-0.1244,-0.1323,-0.0983,-0.0933,-0.0886,-0.0949,-0.137,-0.1371,-0.1906,-0.1911,-0.1916]}],[{"header":{"parameterUnit":"m.s-1","parameterCategory":2,"la1":30.2991,"la2":30.254,"lo1":-89.0895,"lo2":-89.0444,"dy":0.0017,"dx":0.0017,"nx":28,"ny":28,"refTime":"2025-06-08T03:00:00:Z","depth":"2","parameterNumber":2,"parameterNumberName":"U-component_of_CURRENTS"},"data":[0,0,0,0,0,0,0,0,0,0,0,0,0,0,0,0,0,0,0,0,0,0,0,0,0,0,0,0,0,0,0,0,0,0,0,0,0,0,0,0,0,0,0,0,0,0,0,0,0,0,0,0,0,0,0,0,0,0,0.2611,0.2612,0,0.2652,0.2652,0.2653,0.2673,0.2674,0.2674,0.2674,0.271,0.2711,0.2712,0,0,0,0,0,0,0,0,0,0,0,0,0,0.2541,0.2542,0.2611,0.2612,0.2612,0.2652,0.2652,0.2653,0.2673,0.2674,0.2674,0.2674,0.271,0.2711,0.2712,0,0,0,0,0,0,0,0,0,0,0,0,0,0.2574,0.2542,0.2611,0.2629,0.2631,0.2652,0.2652,0.2653,0.2673,0.2674,0.2674,0.2674,0.271,0.2711,0.2712,0.2714,0,0,0.2716,0.2716,0,0,0,0,0,0,0,0,0.2572,0.2576,0.2626,0.2628,0.263,0.266,0.2641,0.2674,0.2673,0.2655,0.2674,0.2674,0.2694,0.2697,0.2701,0.2715,0.2717,0.2716,0.2717,0.2717,0.2718,0,0,0,0,0,0,0,0.2569,0.2574,0.2625,0.2626,0.2629,0.2632,0.2636,0.2647,0.2671,0.2657,0.2659,0.2666,0.2695,0.27,0.2702,0.2718,0.2716,0.2717,0.2718,0.2718,0.2889,0.2892,0,0,0,0,0,0,0.2569,0.2572,0.2624,0.2627,0.2603,0.2633,0.2638,0.2648,0.2671,0.2675,0.2666,0.2667,0.2698,0.2701,0.2703,0.2845,0.2717,0.2718,0.2719,0.2885,0.289,0.2894,0,0,0,0,0,0,0.2567,0.2573,0.2622,0.2602,0.2608,0.2634,0.2645,0.2649,0.266,0.2679,0.2682,0.2675,0.2698,0.2702,0.2746,0.2841,0.2719,0.272,0.288,0.2886,0.2892,0.3039,0,0,0,0,0,0,0.2565,0.2572,0.2582,0.2602,0.261,0.265,0.2645,0.265,0.2665,0.2667,0.2687,0.269,0.2698,0.2744,0.2747,0.2841,0.2721,0.2876,0.2883,0.289,0.303,0.3049,0.3066,0,0,0,0,0,0.2562,0.2597,0.2583,0.2589,0.2622,0.2651,0.2656,0.2673,0.2665,0.2681,0.2706,0.269,0.2793,0.2747,0.2749,0.2846,0.2872,0.2881,0.2889,0.3021,0.3045,0.3066,0,0,0,0,0,0,0.2586,0.2602,0.2588,0.2627,0.2636,0.2656,0.2685,0.2674,0.2703,0.2714,0.2714,0.2721,0.2805,0.2794,0.2744,0.2919,0.284,0.2849,0.294,0.2962,0.298,0.3021,0.2722,0,0,0,0,0,0.2589,0.2618,0.2618,0.2654,0.2659,0.2662,0.2676,0.2683,0.2708,0.272,0.2738,0.2779,0.2841,0.2872,0.2908,0.2981,0.2992,0.3053,0.3072,0.3087,0.3126,0.3254,0.3288,0.2922,0.2922,0.2922,0,0,0.2618,0.2625,0.2647,0.266,0.2673,0.2733,0.2673,0.2709,0.2779,0.272,0.2823,0.283,0.2871,0.2976,0.3015,0.298,0.3185,0.3098,0.3111,0.3142,0.3266,0.3302,0.3334,0.2928,0.2927,0.2926,0,0,0.2711,0.2686,0.2747,0.2757,0.2774,0.2785,0.2793,0.2812,0.2836,0.2905,0.2914,0.2973,0.3037,0.3109,0.3151,0.3285,0.3271,0.3301,0.3438,0.3562,0.3594,0.3622,0.3625,0.3652,0.332,0.332,0.332,0,0.2736,0.2818,0.277,0.283,0.2866,0.2817,0.29,0.2927,0.2964,0.3018,0.2964,0.3133,0.3122,0.3313,0.3354,0.3332,0.3361,0.3347,0.3588,0.3617,0.3643,0.364,0.3668,0.3328,0.3327,0.3327,0.3326,0,0.2888,0.2942,0.2981,0.3047,0.3065,0.313,0.3142,0.3185,0.3192,0.323,0.3372,0.3372,0.3485,0.3491,0.3455,0.3662,0.3603,0.3588,0.3532,0.3689,0.3674,0.3701,0.334,0.3337,0.3335,0.3333,0,0,0.2981,0.3072,0.3083,0.3108,0.3184,0.3183,0.3333,0.3433,0.3516,0.357,0.3715,0.3802,0.379,0.3835,0.3816,0.3897,0.404,0.3824,0.3826,0.3824,0.4253,0.3978,0.3979,0.4085,0.4092,0.4098,0.4145,0,0.312,0.3212,0.3279,0.3391,0.3419,0.3459,0.3584,0.3656,0.3712,0.3827,0.3893,0.3999,0.3934,0.3966,0.4066,0.4054,0.413,0.4024,0.4104,0.4104,0.3843,0.401,0.3738,0.374,0.4171,0.4175,0.4178,0,0.3275,0.3281,0.3398,0.348,0.3509,0.3608,0.373,0.3846,0.4024,0.4068,0.4232,0.4254,0.4416,0.4293,0.4456,0.44,0.4353,0.4319,0.4321,0.4044,0.3884,0.3666,0.3772,0.4222,0.4219,0.4216,0.4213,0,0.325,0.3385,0.345,0.3478,0.3578,0.3677,0.3773,0.393,0.4017,0.4236,0.4297,0.452,0.4567,0.4666,0.458,0.4556,0.4681,0.4642,0.4359,0.4334,0.4106,0.4048,0.4768,0.4768,0.4768,0.4768,0.4768,0,0.3337,0.3396,0.3433,0.3439,0.3541,0.3637,0.3803,0.393,0.4125,0.4255,0.4416,0.4513,0.4662,0.4723,0.4692,0.4592,0.4796,0.4418,0.4369,0.4135,0.4083,0.4509,0.4479,0.4769,0.4769,0.4769,0.4768,0,0.3303,0.337,0.3403,0.3473,0.3531,0.3574,0.3785,0.3894,0.4081,0.4262,0.4338,0.4533,0.4593,0.4647,0.4725,0.4648,0.4622,0.4514,0.4153,0.406,0.4162,0.4139,0.4276,0.4268,0.4261,0.4255,0.425,0,0.3238,0.3268,0.3336,0.3358,0.3417,0.3521,0.3642,0.386,0.3969,0.4245,0.4317,0.443,0.4436,0.4423,0.4334,0.4251,0.4382,0.3933,0.3842,0.4194,0.4133,0.4121,0.4107,0.3583,0.3573,0.3564,0.3558,0,0.3054,0.3143,0.315,0.3226,0.3326,0.3438,0.361,0.3664,0.3943,0.4053,0.4185,0.4213,0.4165,0.3959,0.3809,0.3722,0.3944,0.3751,0.4327,0.3707,0.3533,0.3474,0.3487,0.3485,0.3492,0.3497,0.3501,0.3504,0.2866,0.2859,0.2921,0.3044,0.3205,0.3337,0.3372,0.3521,0.3638,0.3733,0.3863,0.3775,0.3769,0.3348,0.3224,0.3133,0.3357,0.3276,0.3307,0.3346,0.3216,0.3035,0.2863,0.2867,0.287,0.2873,0.2875,0,0.2522,0.2646,0.2721,0.2848,0.3037,0.3207,0.3349,0.333,0.338,0.342,0.34,0.301,0.2818,0.2823,0.2585,0.2524,0.2544,0.2425,0.2516,0.2587,0.2652,0.2493,0.1946,0.1943,0.194,0.1938,0,0,0.2324,0.2323,0.2458,0.2653,0.2851,0.2984,0.3055,0.2988,0.297,0.2796,0.2684,0.2675,0.2777,0.2362,0.2273,0.2124,0.2339,0.2006,0.2756,0.2941,0.3002,0.314,0.2972,0,0,0,0,0]},{"header":{"parameterUnit":"m.s-1","parameterCategory":2,"la1":30.2991,"la2":30.254,"lo1":-89.0895,"lo2":-89.0444,"dy":0.0017,"dx":0.0017,"nx":28,"ny":28,"refTime":"2025-06-08T03:00:00:Z","depth":"2","parameterNumber":3,"parameterNumberName":"V-component_of_CURRENTS"},"data":[0,0,0,0,0,0,0,0,0,0,0,0,0,0,0,0,0,0,0,0,0,0,0,0,0,0,0,0,0,0,0,0,0,0,0,0,0,0,0,0,0,0,0,0,0,0,0,0,0,0,0,0,0,0,0,0,0,0,0.0059,0.0059,0,-0.0002,-0.0003,-0.0004,-0.006,-0.0061,-0.0061,-0.0062,-0.0122,-0.0123,-0.0124,0,0,0,0,0,0,0,0,0,0,0,0,0,0.0069,0.007,0.0059,0.0059,0.0058,-0.0002,-0.0003,-0.0005,-0.006,-0.0061,-0.0061,-0.0062,-0.0121,-0.0123,-0.0124,0,0,0,0,0,0,0,0,0,0,0,0,0,0.004,0.007,0.0059,0.0025,0.0022,-0.0002,-0.0003,-0.0005,-0.006,-0.0061,-0.0061,-0.0062,-0.0121,-0.0123,-0.0124,-0.0123,0,0,-0.013,-0.0131,0,0,0,0,0,0,0,0,0.0042,0.0039,0.0031,0.0027,0.0024,-0.0022,-0.0022,-0.0043,-0.006,-0.0032,-0.0062,-0.0062,-0.0086,-0.0091,-0.0105,-0.0125,-0.0128,-0.013,-0.0131,-0.0132,-0.0132,0,0,0,0,0,0,0,0.0044,0.0041,0.0032,0.003,0.0026,-0.0008,-0.0012,-0.0027,-0.0057,-0.0034,-0.0038,-0.004,-0.0088,-0.0103,-0.0106,-0.0129,-0.013,-0.0132,-0.0133,-0.0133,-0.0089,-0.0087,0,0,0,0,0,0,0.0061,0.0044,0.0034,0.0031,0.0034,-0.0007,-0.0012,-0.0009,-0.0057,-0.0064,-0.004,-0.0043,-0.0099,-0.0104,-0.0109,-0.004,-0.0132,-0.0134,-0.0135,-0.0091,-0.0089,-0.0086,0,0,0,0,0,0,0.0061,0.0061,0.0037,0.0037,0.0032,-0.0005,-0.0002,-0.001,-0.002,-0.006,-0.0068,-0.0041,-0.01,-0.0106,-0.0097,-0.0045,-0.0134,-0.0136,-0.0094,-0.0091,-0.0087,0.0053,0,0,0,0,0,0,0.0062,0.0061,0.0068,0.0039,0.0033,0.0036,-0.0001,-0.001,-0.0019,-0.0024,-0.0064,-0.0071,-0.0101,-0.0094,-0.0099,-0.005,-0.0137,-0.0097,-0.0092,-0.0088,0.0046,0.0061,0.0074,0,0,0,0,0,0.0063,0.0086,0.0069,0.0068,0.0044,0.0037,0.0031,-0.0001,-0.0018,-0.0015,-0.003,-0.0069,-0.0071,-0.0094,-0.01,-0.005,-0.0099,-0.0094,-0.0089,0.0039,0.0058,0.0074,0,0,0,0,0,0,0.0102,0.0082,0.0063,0.008,0.0062,0.0028,0.0034,0.0009,-0.0003,-0.0004,-0.0046,-0.0053,-0.0025,-0.0057,-0.0082,-0.0024,-0.0089,-0.0085,0.0011,0.0028,0.0042,0.0051,-0.0139,0,0,0,0,0,0.0112,0.012,0.0094,0.0108,0.0105,0.0069,0.0062,0.004,0.0025,0.0017,-0.0,-0.0013,-0.0009,-0.0007,-0.0018,0.0011,-0.0057,0.0041,0.0055,0.0067,0.0072,0.0035,0.0046,-0.007,-0.007,-0.007,0,0,0.0136,0.0122,0.0129,0.0115,0.01,0.012,0.0063,0.0063,0.0085,0.0016,0.0051,0.0032,0.0008,0.0045,0.0056,0.0026,0.0058,0.0074,0.0084,0.0082,0.0041,0.0052,0.0062,-0.0066,-0.0067,-0.0067,0,0,0.0191,0.0172,0.0199,0.0188,0.0171,0.0158,0.0164,0.0143,0.0138,0.0165,0.013,0.014,0.0145,0.0141,0.014,0.0223,0.0131,0.0228,0.0312,0.0278,0.0286,0.0293,0.0191,0.0188,0.0239,0.024,0.024,0,0.0222,0.025,0.0207,0.0227,0.0233,0.0186,0.0224,0.0218,0.0206,0.0225,0.0199,0.0224,0.0195,0.0244,0.0276,0.0256,0.0196,0.0251,0.0295,0.0301,0.0305,0.0199,0.0194,0.0247,0.0246,0.0246,0.0245,0,0.0302,0.0316,0.0336,0.035,0.0345,0.0373,0.0355,0.0374,0.0372,0.037,0.0413,0.0376,0.0399,0.0393,0.0361,0.0399,0.0329,0.0313,0.025,0.0325,0.0208,0.02,0.0258,0.0255,0.0253,0.0251,0,0,0.0392,0.0398,0.0403,0.0406,0.0414,0.0408,0.0472,0.0509,0.0573,0.0549,0.0635,0.061,0.0589,0.0585,0.0544,0.0506,0.0472,0.0435,0.0429,0.0329,0.0345,0.0276,0.0259,0.0469,0.0469,0.0469,0.0238,0,0.0476,0.0498,0.0519,0.0567,0.0558,0.0571,0.0652,0.0667,0.0693,0.077,0.0723,0.0788,0.0665,0.0707,0.0644,0.0558,0.0463,0.0532,0.0291,0.0282,0.021,0.0253,0.0266,0.0062,0.0229,0.0228,0.0227,0,0.0551,0.0531,0.0574,0.0626,0.0648,0.0712,0.08,0.0885,0.0973,0.1003,0.1025,0.1002,0.0982,0.0872,0.0677,0.0732,0.0535,0.0413,0.0402,0.0285,0.0201,0.002,0.0039,0.0211,0.0213,0.0214,0.0215,0,0.0518,0.0589,0.0611,0.0617,0.068,0.0755,0.0855,0.0949,0.1058,0.1175,0.1254,0.1199,0.1201,0.0999,0.0733,0.0723,0.0482,0.0442,0.0151,0.014,0.0077,0.0062,0.0238,0.0239,0.0239,0.024,0.0241,0,0.0544,0.0573,0.0604,0.0589,0.0715,0.0769,0.0957,0.1061,0.124,0.1411,0.1386,0.146,0.1232,0.1073,0.0803,0.046,0.0519,0.016,0.0094,0.0122,0.0115,0.0196,0.0194,0.0231,0.0233,0.0235,0.0236,0,0.0486,0.0516,0.054,0.0614,0.0683,0.0768,0.1045,0.1201,0.1355,0.158,0.1641,0.1641,0.1424,0.111,0.0773,0.0544,0.0244,0.0068,0.0084,0.0026,-0.0109,-0.0101,-0.0241,-0.0245,-0.0248,-0.0251,-0.0254,0,0.0437,0.0433,0.0525,0.0596,0.0659,0.0824,0.101,0.1238,0.1418,0.1686,0.1805,0.1676,0.1555,0.1023,0.0596,0.0088,0.0056,-0.0178,-0.0192,-0.01,-0.015,-0.0137,-0.0124,-0.0253,-0.0256,-0.0257,-0.0259,0,0.0338,0.0403,0.0433,0.0581,0.0752,0.0961,0.1227,0.137,0.1692,0.1847,0.2007,0.1937,0.1431,0.095,0.0302,-0.0005,-0.0064,-0.0233,-0.0114,-0.0114,-0.0124,-0.0169,-0.0154,-0.0275,-0.0273,-0.0272,-0.0271,-0.027,0.03,0.0333,0.0428,0.061,0.0844,0.1127,0.1313,0.1573,0.1854,0.2108,0.2025,0.1903,0.1435,0.0524,0.0095,-0.0306,-0.0325,-0.0435,-0.0424,-0.0413,-0.0352,-0.0365,-0.0555,-0.0555,-0.0555,-0.0555,-0.0555,0,0.0233,0.0345,0.0475,0.0717,0.1017,0.1157,0.1512,0.1692,0.2007,0.2086,0.2094,0.1558,0.1016,0.0517,-0.0109,-0.0481,-0.0469,-0.0572,-0.046,-0.0445,-0.0432,-0.0365,-0.0576,-0.0576,-0.0577,-0.0577,0,0,0.0225,0.0331,0.0437,0.0854,0.1097,0.1482,0.1704,0.1919,0.2024,0.2058,0.1952,0.1631,0.1075,0.0618,0.01,-0.0207,-0.0221,-0.0274,-0.0231,-0.0024,-0.0004,-0.0349,-0.0231,0,0,0,0,0]}],[{"header":{"parameterUnit":"m.s-1","parameterCategory":2,"la1":30.2991,"la2":30.254,"lo1":-89.0895,"lo2":-89.0444,"dy":0.0017,"dx":0.0017,"nx":28,"ny":28,"refTime":"2025-06-08T03:00:00:Z","depth":"4","parameterNumber":2,"parameterNumberName":"U-component_of_CURRENTS"},"data":[0,0,0,0,0,0,0,0,0,0,0,0,0,0,0,0,0,0,0,0,0,0,0,0,0,0,0,0,0,0,0,0,0,0,0,0,0,0,0,0,0,0,0,0,0,0,0,0,0,0,0,0,0,0,0,0,0,0,0.1246,0.1247,0,0.1328,0.1329,0.1331,0.141,0.1411,0.1412,0.1413,0.1456,0.1457,0.1457,0,0,0,0,0,0,0,0,0,0,0,0,0,0.1155,0.1157,0.1246,0.1247,0.1248,0.1328,0.133,0.1331,0.141,0.1411,0.1412,0.1413,0.1456,0.1457,0.1457,0,0,0,0,0,0,0,0,0,0,0,0,0,0.1213,0.1157,0.1246,0.1296,0.1301,0.1328,0.133,0.1331,0.1409,0.1411,0.1412,0.1414,0.1456,0.1457,0.1457,0.1432,0,0,0.1458,0.1459,0,0,0,0,0,0,0,0,0.121,0.1216,0.1288,0.1293,0.1299,0.1359,0.1314,0.1363,0.1409,0.137,0.1413,0.1414,0.1419,0.1422,0.1437,0.1434,0.1436,0.1458,0.1459,0.1459,0.1459,0,0,0,0,0,0,0,0.1205,0.1213,0.128,0.1289,0.1295,0.1314,0.1324,0.1324,0.1385,0.1373,0.1379,0.1386,0.1422,0.1436,0.1438,0.1437,0.1458,0.1459,0.1459,0.1459,0.1563,0.1565,0,0,0,0,0,0,0.1192,0.1209,0.1277,0.1282,0.1255,0.1314,0.1326,0.1339,0.1386,0.1395,0.1385,0.1389,0.1435,0.1438,0.144,0.1551,0.1459,0.1459,0.146,0.1561,0.1564,0.1566,0,0,0,0,0,0,0.119,0.1197,0.1274,0.1246,0.1257,0.1314,0.1329,0.134,0.1402,0.1395,0.1404,0.144,0.1436,0.1439,0.1497,0.1548,0.146,0.146,0.1558,0.1562,0.1565,0.1685,0,0,0,0,0,0,0.1187,0.1196,0.1225,0.1246,0.1258,0.1324,0.1328,0.1341,0.14,0.1409,0.1444,0.1448,0.1437,0.1497,0.1497,0.1547,0.146,0.1555,0.1559,0.1564,0.1678,0.1692,0.1705,0,0,0,0,0,0.1183,0.1215,0.1226,0.1236,0.1289,0.1326,0.1336,0.138,0.1402,0.144,0.1475,0.1449,0.1526,0.1499,0.15,0.1551,0.1552,0.1558,0.1563,0.1672,0.1689,0.1704,0,0,0,0,0,0,0.1187,0.1226,0.1239,0.1281,0.1315,0.134,0.1385,0.1405,0.1462,0.1483,0.1479,0.1486,0.1558,0.1536,0.1506,0.1595,0.1535,0.1541,0.1617,0.1634,0.1647,0.165,0.1461,0,0,0,0,0,0.1198,0.1237,0.1266,0.1301,0.1328,0.1363,0.1393,0.1419,0.1457,0.1487,0.1509,0.1536,0.1571,0.1591,0.161,0.1651,0.162,0.1685,0.1698,0.171,0.1714,0.1727,0.1742,0.1585,0.1585,0.1584,0,0,0.1199,0.1233,0.1251,0.1306,0.1342,0.1373,0.1388,0.1446,0.1486,0.1478,0.1559,0.1587,0.1596,0.1658,0.1686,0.1651,0.1737,0.1717,0.1727,0.1725,0.1735,0.175,0.1763,0.1588,0.1588,0.1587,0,0,0.1206,0.1266,0.1293,0.1337,0.1398,0.1416,0.1442,0.1494,0.1548,0.1611,0.1629,0.1701,0.173,0.1765,0.1779,0.1874,0.1812,0.1875,0.1942,0.1956,0.1968,0.1979,0.195,0.1957,0.1876,0.1877,0.1877,0,0.1216,0.1224,0.1306,0.1349,0.1373,0.1438,0.1456,0.1527,0.1591,0.1629,0.1654,0.1762,0.1784,0.1865,0.1913,0.1907,0.1881,0.1881,0.1973,0.1983,0.1992,0.1959,0.1965,0.1883,0.1882,0.1882,0.1881,0,0.1213,0.1244,0.1272,0.1335,0.14,0.1419,0.1516,0.1583,0.1646,0.1698,0.182,0.1886,0.1953,0.1976,0.1979,0.2064,0.2013,0.1992,0.1929,0.2015,0.1974,0.1979,0.1892,0.189,0.1888,0.1887,0,0,0.1133,0.1237,0.1244,0.1266,0.1377,0.1418,0.152,0.1593,0.164,0.1781,0.1852,0.1991,0.2064,0.2088,0.2127,0.2147,0.2205,0.2105,0.2102,0.207,0.22,0.206,0.205,0.2195,0.2196,0.2198,0.2142,0,0.1074,0.1119,0.1194,0.1233,0.1254,0.1369,0.144,0.1558,0.1655,0.1754,0.1915,0.1994,0.2102,0.2131,0.2214,0.2202,0.2223,0.2219,0.2126,0.2122,0.1984,0.2054,0.2204,0.2145,0.2146,0.2147,0.2147,0,0.1003,0.1042,0.1073,0.1153,0.1176,0.1236,0.1348,0.1423,0.1607,0.1693,0.1881,0.1982,0.2147,0.217,0.2295,0.2286,0.227,0.2244,0.2241,0.207,0.1992,0.2044,0.2154,0.2153,0.2153,0.2152,0.2152,0,0.0872,0.0939,0.0952,0.099,0.1115,0.1171,0.124,0.1408,0.1498,0.1666,0.1738,0.1959,0.2078,0.2142,0.2226,0.224,0.2268,0.2269,0.2124,0.2111,0.2198,0.2186,0.2295,0.2295,0.2295,0.2295,0.2295,0,0.0753,0.0757,0.0901,0.0921,0.0947,0.1094,0.1164,0.1254,0.1436,0.1546,0.1732,0.1853,0.2072,0.2157,0.2196,0.22,0.2275,0.214,0.2099,0.2247,0.2243,0.2199,0.2189,0.2293,0.2294,0.2294,0.2294,0,0.0617,0.0694,0.0716,0.0847,0.0898,0.0942,0.1139,0.1189,0.1348,0.1501,0.1559,0.1809,0.1915,0.2047,0.2111,0.2138,0.2113,0.2063,0.2189,0.2154,0.1948,0.1945,0.1912,0.1907,0.1903,0.1899,0.1896,0,0.0539,0.0543,0.0671,0.0715,0.0786,0.0892,0.0959,0.1141,0.1235,0.1474,0.1538,0.169,0.1844,0.1853,0.1981,0.1994,0.1984,0.1938,0.1996,0.1952,0.1915,0.1919,0.1921,0.1889,0.1888,0.1887,0.1886,0,0.0395,0.046,0.0505,0.0597,0.0682,0.0768,0.0904,0.097,0.1186,0.133,0.1492,0.1578,0.1686,0.1802,0.1795,0.1817,0.1964,0.1893,0.1904,0.1958,0.1924,0.1892,0.19,0.187,0.1873,0.1874,0.1875,0,0.0298,0.0302,0.0395,0.0474,0.0571,0.0658,0.0734,0.0886,0.1008,0.1296,0.1347,0.1514,0.1689,0.1704,0.1715,0.1713,0.1722,0.1683,0.1705,0.1722,0.1693,0.1624,0.1446,0,0,0,0,0,0.0207,0.0237,0.0278,0.0382,0.0475,0.0549,0.0711,0.0806,0.1021,0.1096,0.1243,0.1335,0.1435,0.1523,0.1489,0.1604,0.1689,0.1554,0.1646,0.1787,0.1804,0.1791,0,0,0,0,0,0,0.0168,0.02,0.0236,0.0303,0.0364,0.0465,0.0565,0.0698,0.0781,0.1003,0.1065,0.1232,0.1334,0.1431,0.1455,0.1475,0.1502,0.1661,0.1657,0.1777,0.1793,0.1807,0.18,0,0,0,0,0]},{"header":{"parameterUnit":"m.s-1","parameterCategory":2,"la1":30.2991,"la2":30.254,"lo1":-89.0895,"lo2":-89.0444,"dy":0.0017,"dx":0.0017,"nx":28,"ny":28,"refTime":"2025-06-08T03:00:00:Z","depth":"4","parameterNumber":3,"parameterNumberName":"V-component_of_CURRENTS"},"data":[0,0,0,0,0,0,0,0,0,0,0,0,0,0,0,0,0,0,0,0,0,0,0,0,0,0,0,0,0,0,0,0,0,0,0,0,0,0,0,0,0,0,0,0,0,0,0,0,0,0,0,0,0,0,0,0,0,0,-0.0021,-0.0021,0,-0.0071,-0.0072,-0.0073,-0.0094,-0.0093,-0.0093,-0.0093,-0.0148,-0.015,-0.0152,0,0,0,0,0,0,0,0,0,0,0,0,0,-0.0001,-0.0001,-0.0021,-0.0021,-0.0022,-0.0071,-0.0072,-0.0073,-0.0094,-0.0093,-0.0093,-0.0092,-0.0147,-0.015,-0.0152,0,0,0,0,0,0,0,0,0,0,0,0,0,-0.0028,-0.0001,-0.0021,-0.0036,-0.0038,-0.0071,-0.0072,-0.0073,-0.0094,-0.0093,-0.0093,-0.0092,-0.0147,-0.0149,-0.0152,-0.0179,0,0,-0.016,-0.0161,0,0,0,0,0,0,0,0,-0.0027,-0.0029,-0.0033,-0.0035,-0.0037,-0.0073,-0.0085,-0.0108,-0.0094,-0.0075,-0.0093,-0.0092,-0.0122,-0.0127,-0.0141,-0.0181,-0.0184,-0.016,-0.0162,-0.0163,-0.0164,0,0,0,0,0,0,0,-0.0025,-0.0028,-0.0043,-0.0034,-0.0036,-0.006,-0.0063,-0.009,-0.0103,-0.0077,-0.0078,-0.0079,-0.0124,-0.0139,-0.0143,-0.0185,-0.016,-0.0163,-0.0164,-0.0166,-0.0328,-0.0331,0,0,0,0,0,0,-0.0011,-0.0025,-0.0042,-0.0045,-0.0028,-0.006,-0.0064,-0.0064,-0.0103,-0.0107,-0.008,-0.008,-0.0134,-0.0139,-0.0145,-0.0211,-0.0163,-0.0166,-0.0167,-0.0325,-0.0329,-0.0331,0,0,0,0,0,0,-0.001,-0.0012,-0.004,-0.0034,-0.0039,-0.006,-0.0061,-0.0065,-0.0078,-0.0104,-0.011,-0.0087,-0.0134,-0.0141,-0.0186,-0.0212,-0.0167,-0.0169,-0.0322,-0.0326,-0.033,-0.0323,0,0,0,0,0,0,-0.0009,-0.0011,-0.0011,-0.0033,-0.0039,-0.0067,-0.0062,-0.0067,-0.0079,-0.008,-0.0113,-0.0117,-0.0134,-0.0182,-0.0189,-0.0215,-0.0172,-0.0319,-0.0324,-0.0329,-0.032,-0.0326,-0.0332,0,0,0,0,0,-0.0008,-0.0021,-0.0011,-0.0013,-0.0037,-0.0068,-0.0074,-0.0089,-0.0079,-0.0096,-0.0123,-0.0116,-0.022,-0.0186,-0.0193,-0.0221,-0.0316,-0.0322,-0.0328,-0.0317,-0.0325,-0.0332,0,0,0,0,0,0,-0.0018,-0.0024,-0.0014,-0.0027,-0.0044,-0.0071,-0.0089,-0.0088,-0.0121,-0.0123,-0.0139,-0.0148,-0.02,-0.0221,-0.0183,-0.029,-0.0272,-0.0279,-0.0261,-0.0269,-0.0275,-0.0244,-0.0174,0,0,0,0,0,-0.0015,-0.0025,-0.0032,-0.0045,-0.0051,-0.0064,-0.0078,-0.0086,-0.0114,-0.0127,-0.015,-0.0189,-0.0233,-0.0255,-0.0296,-0.0345,-0.0357,-0.0377,-0.0383,-0.0387,-0.0373,-0.0409,-0.0415,-0.0351,-0.0351,-0.0351,0,0,-0.0026,-0.0028,-0.0035,-0.0048,-0.0061,-0.0084,-0.0073,-0.0098,-0.0126,-0.0129,-0.0179,-0.0204,-0.0252,-0.0312,-0.0338,-0.0329,-0.0422,-0.0395,-0.0398,-0.0381,-0.0415,-0.0421,-0.0426,-0.0356,-0.0355,-0.0354,0,0,-0.0059,-0.0049,-0.0069,-0.008,-0.0095,-0.0104,-0.0107,-0.0132,-0.0152,-0.02,-0.0214,-0.0244,-0.0321,-0.0347,-0.0374,-0.0439,-0.0449,-0.0473,-0.0476,-0.0511,-0.0515,-0.0518,-0.0569,-0.0577,-0.0479,-0.0479,-0.0479,0,-0.007,-0.0071,-0.0083,-0.0104,-0.0101,-0.0111,-0.0123,-0.0162,-0.0202,-0.021,-0.0223,-0.0307,-0.0335,-0.0389,-0.0419,-0.0445,-0.0478,-0.0434,-0.0513,-0.0517,-0.052,-0.0571,-0.058,-0.0479,-0.0479,-0.0479,-0.0479,0,-0.0114,-0.0107,-0.0121,-0.0137,-0.0157,-0.0162,-0.0199,-0.0229,-0.0243,-0.026,-0.0311,-0.0355,-0.039,-0.0424,-0.0442,-0.0491,-0.0512,-0.0508,-0.0478,-0.0525,-0.0578,-0.0587,-0.048,-0.0479,-0.0479,-0.0479,0,0,-0.0131,-0.0141,-0.014,-0.0111,-0.0151,-0.0152,-0.0225,-0.0247,-0.0259,-0.032,-0.0338,-0.0413,-0.0404,-0.0434,-0.046,-0.0498,-0.0558,-0.0517,-0.0519,-0.0538,-0.0658,-0.0583,-0.0586,-0.0569,-0.057,-0.0571,-0.0693,0,-0.0136,-0.013,-0.0161,-0.0149,-0.0123,-0.0162,-0.0207,-0.0246,-0.0291,-0.0327,-0.0372,-0.0406,-0.0423,-0.0432,-0.0474,-0.0535,-0.0578,-0.0526,-0.0635,-0.0638,-0.054,-0.0592,-0.0574,-0.07,-0.0702,-0.0703,-0.0704,0,-0.0138,-0.0119,-0.0098,-0.0066,-0.0065,-0.0085,-0.0104,-0.0152,-0.0236,-0.0273,-0.0326,-0.0371,-0.0437,-0.0443,-0.056,-0.0532,-0.0589,-0.064,-0.0646,-0.0573,-0.0578,-0.0642,-0.0721,-0.0719,-0.0718,-0.0717,-0.0716,0,-0.0054,-0.0052,-0.0005,-0.0001,-0.0013,-0.0019,-0.0034,-0.0114,-0.0136,-0.0235,-0.0257,-0.0354,-0.0392,-0.0487,-0.0578,-0.0587,-0.0704,-0.0727,-0.0717,-0.0715,-0.0744,-0.0739,-0.0799,-0.0799,-0.0798,-0.0798,-0.0798,0,0.0007,0.0049,0.0052,0.0083,0.0128,0.0081,0.0086,0.0033,-0.0039,-0.0058,-0.0192,-0.0228,-0.0404,-0.0493,-0.0586,-0.0666,-0.0707,-0.0719,-0.0734,-0.0748,-0.0741,-0.0753,-0.0746,-0.0803,-0.0802,-0.0801,-0.08,0,0.0094,0.0099,0.016,0.017,0.0176,0.0208,0.0178,0.0166,0.0092,0.0048,0.002,-0.0143,-0.0275,-0.0428,-0.0596,-0.0649,-0.0748,-0.0758,-0.0767,-0.078,-0.0751,-0.0743,-0.0804,-0.0802,-0.08,-0.0799,-0.0798,0,0.0154,0.0193,0.023,0.0262,0.0268,0.0295,0.0295,0.0237,0.0213,0.0114,0.0104,-0.0044,-0.016,-0.0345,-0.0511,-0.07,-0.0701,-0.0767,-0.0762,-0.0739,-0.0749,-0.0743,-0.0737,-0.0796,-0.0795,-0.0795,-0.0794,0,0.0243,0.0243,0.0269,0.0331,0.0361,0.0386,0.0389,0.0389,0.0307,0.0262,0.0175,0.0038,-0.011,-0.0311,-0.0445,-0.0571,-0.0742,-0.0752,-0.0757,-0.0753,-0.073,-0.074,-0.0736,-0.0789,-0.079,-0.079,-0.0791,0,0.0284,0.031,0.0324,0.0373,0.0428,0.0448,0.0445,0.0416,0.0391,0.029,0.0271,0.0085,-0.0043,-0.024,-0.0356,-0.0483,-0.053,-0.057,-0.0586,-0.0594,-0.0481,-0.0418,-0.0393,0,0,0,0,0,0.0307,0.0307,0.0362,0.0396,0.0456,0.0472,0.0485,0.0462,0.041,0.0373,0.0321,0.0189,-0.003,-0.0142,-0.0256,-0.0344,-0.056,-0.0481,-0.0615,-0.076,-0.0766,-0.0659,0,0,0,0,0,0,0.0302,0.0334,0.0346,0.0404,0.0438,0.0475,0.0485,0.0449,0.0422,0.0367,0.0254,0.0186,-0.003,0.0042,-0.0251,-0.0295,-0.0388,-0.0591,-0.0592,-0.0756,-0.0762,-0.0767,-0.0659,0,0,0,0,0]}]]